[[{"header":{"parameterUnit":"m.s-1","parameterCategory":1,"la1":30.2991,"la2":30.254,"lo1":-89.0895,"lo2":-89.0444,"dy":0.0017,"dx":0.0017,"nx":28,"ny":28,"refTime":"2024-07-05T21:00:00:Z","depth":0,"parameterNumber":2,"parameterNumberName":"U-component_of_WINDS"},"data":[0,0,0,0,0,0,0,0,0,0,0,0,0,0,0,0,0,0,0,0,0,0,0,0,0,0,0,0,0,0,0,0,0,0,0,0,0,0,0,0,0,0,0,0,0,0,0,0,0,0,0,0,0,0,0,0,0,0,1.8536,1.8537,0,1.8601,1.8602,1.8603,1.8565,1.8563,1.8561,1.8559,1.8631,1.8634,1.8638,0,0,0,0,0,0,0,0,0,0,0,0,0,1.8381,1.8384,1.8536,1.8537,1.8538,1.8601,1.8602,1.8603,1.8565,1.8563,1.8561,1.8559,1.863,1.8634,1.8638,0,0,0,0,0,0,0,0,0,0,0,0,0,1.8448,1.8385,1.8536,1.8526,1.8526,1.8601,1.8602,1.8603,1.8566,1.8563,1.856,1.8557,1.8628,1.8633,1.8639,1.8728,0,0,1.8655,1.8658,0,0,0,0,0,0,0,0,1.8444,1.8454,1.8527,1.8527,1.8527,1.8572,1.8574,1.8646,1.8566,1.8551,1.8559,1.8556,1.8614,1.862,1.8639,1.8732,1.8735,1.8656,1.8659,1.8662,1.8663,0,0,0,0,0,0,0,1.844,1.8451,1.8562,1.8528,1.8528,1.852,1.8526,1.8587,1.8597,1.8552,1.8549,1.8557,1.8613,1.8634,1.864,1.8736,1.8656,1.8661,1.8664,1.8666,1.8905,1.8908,0,0,0,0,0,0,1.8435,1.8447,1.856,1.8564,1.8478,1.8525,1.8532,1.856,1.8596,1.8599,1.856,1.8555,1.8626,1.8634,1.8643,1.8749,1.8662,1.8667,1.867,1.8902,1.8906,1.8909,0,0,0,0,0,0,1.8432,1.8446,1.8557,1.8505,1.8518,1.853,1.8563,1.8563,1.8583,1.8602,1.8604,1.8578,1.8624,1.8635,1.8707,1.8751,1.8669,1.8674,1.8899,1.8904,1.8908,1.8964,0,0,0,0,0,0,1.8428,1.8445,1.8478,1.8506,1.8521,1.862,1.8566,1.8567,1.8592,1.8587,1.862,1.8623,1.8622,1.8699,1.8712,1.8757,1.8678,1.8895,1.8901,1.8906,1.8959,1.897,1.898,0,0,0,0,0,1.8422,1.8493,1.848,1.8494,1.8563,1.8622,1.8631,1.8628,1.8596,1.863,1.8642,1.8622,1.8744,1.8707,1.8721,1.8769,1.8892,1.8899,1.8906,1.8954,1.8968,1.898,0,0,0,0,0,0,1.8472,1.8496,1.8482,1.8563,1.8591,1.8616,1.8659,1.8643,1.8681,1.8675,1.8671,1.8678,1.8753,1.8768,1.8726,1.8857,1.8813,1.8824,1.8845,1.8859,1.8869,1.8864,1.8683,0,0,0,0,0,1.8491,1.8536,1.8556,1.8625,1.864,1.8647,1.8673,1.8667,1.8696,1.8708,1.8725,1.8755,1.88,1.883,1.8873,1.8961,1.8967,1.9,1.9011,1.902,1.9029,1.9077,1.9091,1.8932,1.8932,1.8932,0,0,1.8534,1.8553,1.8582,1.8636,1.8656,1.8704,1.8657,1.8709,1.8745,1.8717,1.8785,1.8799,1.8832,1.8912,1.8948,1.8927,1.9075,1.9029,1.9036,1.904,1.9085,1.91,1.9114,1.8937,1.8936,1.8935,0,0,1.8635,1.8654,1.8713,1.8734,1.8766,1.877,1.8784,1.8811,1.8819,1.8887,1.8867,1.891,1.8988,1.9012,1.9034,1.9144,1.9127,1.9158,1.9215,1.9261,1.9274,1.9285,1.9324,1.9338,1.9167,1.9167,1.9167,0,1.8684,1.8753,1.8746,1.88,1.8824,1.8799,1.886,1.8881,1.8926,1.8944,1.8919,1.9015,1.9036,1.9121,1.9148,1.9167,1.9184,1.9154,1.9272,1.9283,1.9294,1.9331,1.9346,1.9171,1.917,1.917,1.9169,0,1.8812,1.886,1.8905,1.8946,1.8976,1.9033,1.9036,1.9067,1.9059,1.9066,1.9136,1.916,1.9206,1.9226,1.922,1.9311,1.9297,1.9272,1.9228,1.9313,1.9347,1.9362,1.9176,1.9174,1.9173,1.9172,0,0,1.8947,1.8982,1.8999,1.9017,1.9049,1.9087,1.9144,1.9187,1.9214,1.9246,1.9293,1.9359,1.9336,1.9362,1.9358,1.9398,1.9483,1.9369,1.937,1.9389,1.9585,1.9603,1.962,1.9472,1.9475,1.9477,1.9582,0,1.905,1.9146,1.9141,1.9232,1.9277,1.9253,1.9302,1.9327,1.9336,1.9376,1.9385,1.9432,1.9398,1.9413,1.9452,1.9465,1.9523,1.9457,1.9517,1.9519,1.9509,1.9638,1.9658,1.9756,1.9596,1.9598,1.96,0,1.9183,1.9217,1.9312,1.9336,1.9355,1.9399,1.9438,1.9477,1.9506,1.9509,1.9537,1.9526,1.9584,1.9538,1.9617,1.9573,1.9597,1.9607,1.9611,1.9616,1.9565,1.9647,1.9787,1.9802,1.9621,1.962,1.9618,0,1.9272,1.9341,1.9407,1.9423,1.9454,1.9485,1.9499,1.9525,1.9552,1.9587,1.9604,1.9646,1.9669,1.9703,1.9704,1.967,1.9785,1.9739,1.979,1.979,1.9815,1.9814,1.9961,1.9831,1.9831,1.983,1.983,0,1.9388,1.9447,1.9447,1.9487,1.9553,1.9547,1.9612,1.9623,1.9646,1.9689,1.9672,1.9713,1.9712,1.9754,1.9755,1.9821,1.9832,1.9837,1.9837,1.9838,1.9838,1.9855,1.9848,1.9834,1.9833,1.9833,1.9832,0,1.9498,1.9501,1.957,1.9593,1.96,1.9647,1.9667,1.9706,1.9711,1.9766,1.9779,1.9789,1.9837,1.9841,1.9898,1.9899,1.9979,1.9971,1.9969,1.9967,2.0018,2.0013,2.0181,2.0203,2.0058,2.006,2.0061,0,1.9572,1.9617,1.9643,1.967,1.9686,1.9729,1.9755,1.9751,1.978,1.9815,1.985,1.9896,1.9933,2.0011,2.0025,2.0068,2.0061,2.0117,2.0068,2.0068,2.0062,2.006,2.0064,2.0127,2.0129,2.013,2.0131,0,1.9704,1.9702,1.974,1.9778,1.981,1.984,1.9868,1.9892,1.9891,1.9924,1.9972,2.0,2.0057,2.0104,2.0146,2.0162,2.0147,2.0146,2.016,2.0163,2.0159,2.0162,1.9995,2.0143,2.0141,2.0141,2.014,2.0139,1.9798,1.9836,1.986,1.9903,1.9924,1.995,1.9987,1.9997,2.0036,2.0081,2.0076,2.013,2.0158,2.0212,2.0231,2.0274,2.0255,2.0276,2.0281,2.0286,2.0291,2.0152,2.0282,2.0281,2.0281,2.0281,2.0281,0,1.9929,1.9942,1.9982,2.0021,2.0054,2.0035,2.0065,2.0095,2.0142,2.0168,2.0203,2.0259,2.0303,2.032,2.0363,2.0394,2.0389,2.0406,2.0404,2.0408,2.0306,2.0289,2.041,2.041,2.041,2.041,2.041,2.041,2.0,2.0064,2.0065,2.0138,2.0152,2.0203,2.0221,2.0246,2.0267,2.0328,2.0365,2.0374,2.0396,2.0441,2.0482,2.0485,2.0503,2.0523,2.0524,2.0428,2.0415,2.0403,2.0387,2.0527,2.0527,2.0623,2.0624,2.0624]},{"header":{"parameterUnit":"m.s-1","parameterCategory":1,"la1":30.2991,"la2":30.254,"lo1":-89.0895,"lo2":-89.0444,"dy":0.0017,"dx":0.0017,"nx":28,"ny":28,"refTime":"2024-07-05T21:00:00:Z","depth":0,"parameterNumber":3,"parameterNumberName":"V-component_of_WINDS"},"data":[0,0,0,0,0,0,0,0,0,0,0,0,0,0,0,0,0,0,0,0,0,0,0,0,0,0,0,0,0,0,0,0,0,0,0,0,0,0,0,0,0,0,0,0,0,0,0,0,0,0,0,0,0,0,0,0,0,0,-0.3759,-0.3759,0,-0.3786,-0.3787,-0.3787,-0.3812,-0.3812,-0.3813,-0.3813,-0.384,-0.384,-0.3841,0,0,0,0,0,0,0,0,0,0,0,0,0,-0.3726,-0.3726,-0.3758,-0.3759,-0.3759,-0.3786,-0.3787,-0.3787,-0.3812,-0.3812,-0.3813,-0.3813,-0.384,-0.384,-0.3841,0,0,0,0,0,0,0,0,0,0,0,0,0,-0.3745,-0.3726,-0.3758,-0.3775,-0.3777,-0.3786,-0.3787,-0.3787,-0.3812,-0.3812,-0.3813,-0.3813,-0.3839,-0.384,-0.3841,-0.3835,0,0,-0.3843,-0.3843,0,0,0,0,0,0,0,0,-0.3744,-0.3746,-0.3772,-0.3774,-0.3776,-0.3796,-0.3785,-0.3803,-0.3812,-0.3798,-0.3813,-0.3813,-0.3825,-0.3827,-0.3831,-0.3837,-0.3838,-0.3843,-0.3843,-0.3843,-0.3843,0,0,0,0,0,0,0,-0.3743,-0.3745,-0.3769,-0.3773,-0.3775,-0.3781,-0.3784,-0.3788,-0.3809,-0.38,-0.3802,-0.3805,-0.3826,-0.383,-0.3832,-0.3838,-0.3843,-0.3843,-0.3844,-0.3844,-0.3841,-0.3841,0,0,0,0,0,0,-0.3739,-0.3744,-0.3769,-0.377,-0.3761,-0.3781,-0.3784,-0.3789,-0.3809,-0.3812,-0.3804,-0.3806,-0.3829,-0.3831,-0.3833,-0.3828,-0.3843,-0.3844,-0.3844,-0.3842,-0.3841,-0.3841,0,0,0,0,0,0,-0.3738,-0.3741,-0.3767,-0.3758,-0.3762,-0.3781,-0.3786,-0.3789,-0.3794,-0.3812,-0.3816,-0.3805,-0.3829,-0.3832,-0.3835,-0.3829,-0.3844,-0.3845,-0.3842,-0.3842,-0.3841,-0.3819,0,0,0,0,0,0,-0.3737,-0.3741,-0.3739,-0.3758,-0.3762,-0.3769,-0.3786,-0.379,-0.3795,-0.3797,-0.3814,-0.3817,-0.383,-0.3834,-0.3835,-0.3831,-0.3845,-0.3843,-0.3842,-0.3841,-0.382,-0.3817,-0.3815,0,0,0,0,0,-0.3736,-0.3731,-0.3739,-0.3742,-0.3761,-0.3769,-0.3772,-0.3787,-0.3794,-0.3793,-0.3805,-0.3816,-0.383,-0.3834,-0.3836,-0.3831,-0.3843,-0.3842,-0.3841,-0.3821,-0.3818,-0.3815,0,0,0,0,0,0,-0.3711,-0.3734,-0.3743,-0.3744,-0.3754,-0.3773,-0.3772,-0.3783,-0.3791,-0.3793,-0.3811,-0.3814,-0.3815,-0.3824,-0.3828,-0.3827,-0.3838,-0.3837,-0.3822,-0.3819,-0.3817,-0.3815,-0.3846,0,0,0,0,0,-0.3706,-0.3711,-0.3731,-0.373,-0.3735,-0.3752,-0.3757,-0.3768,-0.3779,-0.3783,-0.3795,-0.3806,-0.3812,-0.3816,-0.3823,-0.3821,-0.3825,-0.3819,-0.3817,-0.3815,-0.3814,-0.3814,-0.3812,-0.3838,-0.3838,-0.3838,0,0,-0.3695,-0.3708,-0.371,-0.3725,-0.3735,-0.374,-0.3756,-0.376,-0.3764,-0.3784,-0.3788,-0.3797,-0.3809,-0.381,-0.3811,-0.3817,-0.3808,-0.3813,-0.3811,-0.3812,-0.3813,-0.381,-0.3808,-0.3837,-0.3837,-0.3837,0,0,-0.3677,-0.3688,-0.3689,-0.3698,-0.3712,-0.3724,-0.3724,-0.3741,-0.3748,-0.3753,-0.3768,-0.3772,-0.3783,-0.3792,-0.3797,-0.3783,-0.3794,-0.3785,-0.3772,-0.3772,-0.377,-0.3768,-0.3764,-0.3762,-0.3784,-0.3784,-0.3784,0,-0.3662,-0.367,-0.3687,-0.3691,-0.3697,-0.3716,-0.3717,-0.3725,-0.374,-0.3744,-0.375,-0.3765,-0.3774,-0.3778,-0.3774,-0.3778,-0.3779,-0.3783,-0.3769,-0.3767,-0.3766,-0.3762,-0.376,-0.3783,-0.3783,-0.3783,-0.3783,0,-0.3651,-0.3656,-0.3655,-0.367,-0.3676,-0.3678,-0.3695,-0.3699,-0.371,-0.3721,-0.3725,-0.3737,-0.3747,-0.3749,-0.3758,-0.3753,-0.3757,-0.3766,-0.3777,-0.3762,-0.3758,-0.3757,-0.3781,-0.3782,-0.3782,-0.3782,0,0,-0.3618,-0.3644,-0.3643,-0.365,-0.3667,-0.3672,-0.3675,-0.3685,-0.3688,-0.3698,-0.3701,-0.371,-0.3719,-0.3725,-0.3736,-0.3736,-0.3725,-0.3745,-0.3746,-0.3741,-0.372,-0.3713,-0.3711,-0.3732,-0.3732,-0.3731,-0.3719,0,-0.3604,-0.3611,-0.3627,-0.3629,-0.3634,-0.3652,-0.3654,-0.3665,-0.3675,-0.3681,-0.3692,-0.3698,-0.3709,-0.3713,-0.3714,-0.3726,-0.372,-0.3727,-0.3735,-0.3735,-0.3731,-0.3709,-0.3702,-0.369,-0.3718,-0.3717,-0.3717,0,-0.3589,-0.3598,-0.3601,-0.3618,-0.3621,-0.3623,-0.3634,-0.364,-0.3652,-0.3659,-0.3667,-0.3679,-0.3683,-0.3693,-0.3698,-0.3702,-0.3706,-0.3713,-0.3713,-0.3714,-0.3725,-0.371,-0.3686,-0.3684,-0.3715,-0.3715,-0.3715,0,-0.3565,-0.3579,-0.3583,-0.3588,-0.3608,-0.3609,-0.3618,-0.3631,-0.3636,-0.3645,-0.3649,-0.3658,-0.3663,-0.367,-0.3685,-0.3691,-0.3688,-0.37,-0.3695,-0.3694,-0.3694,-0.3694,-0.367,-0.3696,-0.3696,-0.3696,-0.3696,0,-0.3548,-0.3549,-0.3572,-0.3575,-0.3576,-0.3594,-0.3595,-0.3605,-0.3616,-0.362,-0.3636,-0.3639,-0.3658,-0.3663,-0.3675,-0.3678,-0.368,-0.3686,-0.3689,-0.3685,-0.3684,-0.3688,-0.3689,-0.3695,-0.3695,-0.3695,-0.3695,0,-0.3523,-0.3538,-0.3543,-0.3562,-0.3567,-0.3567,-0.3583,-0.3586,-0.3597,-0.3602,-0.3604,-0.3622,-0.3629,-0.3644,-0.3656,-0.3663,-0.3664,-0.3669,-0.366,-0.3662,-0.3656,-0.3656,-0.3634,-0.3632,-0.3659,-0.3658,-0.3658,0,-0.3511,-0.3512,-0.3531,-0.3536,-0.3543,-0.355,-0.3556,-0.3573,-0.3578,-0.3592,-0.3593,-0.3602,-0.361,-0.3621,-0.3634,-0.3643,-0.3649,-0.364,-0.365,-0.3646,-0.3649,-0.3649,-0.3649,-0.3638,-0.3638,-0.3638,-0.3637,0,-0.3488,-0.3496,-0.3504,-0.3515,-0.3521,-0.353,-0.354,-0.3543,-0.3562,-0.3567,-0.3575,-0.3581,-0.3593,-0.3602,-0.3613,-0.3621,-0.3632,-0.3634,-0.3634,-0.3629,-0.3624,-0.3627,-0.3654,-0.3635,-0.3635,-0.3635,-0.3635,-0.3635,-0.347,-0.3472,-0.3486,-0.3494,-0.3503,-0.3512,-0.3516,-0.3528,-0.3535,-0.3546,-0.3556,-0.3563,-0.3576,-0.3591,-0.3599,-0.3605,-0.361,-0.3609,-0.3609,-0.3609,-0.3607,-0.3623,-0.3607,-0.3607,-0.3607,-0.3607,-0.3607,0,-0.3448,-0.3458,-0.3466,-0.3479,-0.3486,-0.3497,-0.3508,-0.3513,-0.3519,-0.353,-0.3538,-0.3547,-0.3555,-0.357,-0.3579,-0.3581,-0.3587,-0.3583,-0.3583,-0.3585,-0.3601,-0.3601,-0.3578,-0.3578,-0.3578,-0.3578,-0.3578,-0.3578,-0.3438,-0.3443,-0.3452,-0.3461,-0.3471,-0.3478,-0.3484,-0.3492,-0.3501,-0.3511,-0.3518,-0.3528,-0.354,-0.355,-0.3559,-0.3563,-0.3566,-0.356,-0.3566,-0.3581,-0.3584,-0.3586,-0.3586,-0.3561,-0.3561,-0.3549,-0.3549,-0.3549]}]]